CAPE
0 0 31 89 0 15 1 5 29 618 514 304 179 286 0 258 297 142 59 48 70 65 3 0 17 21 25 30 84 2 0 23 105 15 248 759 691 302 487 1217 1314 1236 1284 432
0 0 37 39 0 32 1 50 14 127 253 51 0 419 301 351 200 121 145 54 70 60 21 0 0 24 0 0 29 67 36 1 76 14 264 1033 920 872 650 1561 1037 1147 1240 1301
0 0 31 114 7 206 230 16 10 37 185 129 26 2 0 25 184 332 133 109 31 74 52 0 0 0 0 0 32 41 205 85 53 489 622 1147 1423 310 403 708 1407 1290 902 1257
0 0 0 0 0 0 0 10 0 0 0 127 0 51 0 46 60 526 410 260 91 56 133 60 1 0 0 0 0 0 309 437 86 850 1123 802 682 67 523 290 930 1265 940 1261
0 0 0 0 0 0 5 0 0 0 25 113 10 0 0 0 120 181 563 583 438 132 137 171 70 6 0 0 0 82 224 652 389 712 1220 828 817 989 304 1160 697 1576 1082 1381
0 0 0 0 0 0 2 0 0 0 0 36 65 32 31 32 10 0 704 537 605 431 136 136 73 54 16 0 2 4 177 281 392 943 902 1186 939 550 926 840 791 863 1684 1164
0 0 0 0 0 0 0 0 0 30 66 58 71 90 68 0 28 368 870 491 593 574 368 269 312 94 32 142 115 115 222 450 549 839 980 1093 1248 1239 919 877 767 1070 758 684
0 0 0 0 0 0 0 0 0 18 4 8 52 91 20 26 0 0 2 30 347 701 634 488 348 207 265 359 340 358 516 766 948 618 788 1291 1382 1627 1282 1147 1186 815 401 121
3 0 0 0 0 0 0 0 0 0 0 4 174 88 51 26 0 15 3 61 199 267 832 689 511 431 501 418 139 225 882 894 884 960 1060 1536 1728 1623 1173 896 1044 250 138 365
0 1 0 0 0 0 0 0 0 0 0 16 32 18 43 4 1 10 104 3 259 452 615 887 886 942 562 529 277 1020 1063 1071 1139 1147 1395 1614 1776 1698 1387 1245 980 900 712 208
0 0 1 0 0 0 0 0 0 0 1 0 1 54 62 30 6 96 55 52 124 83 224 354 706 1136 1004 919 470 876 1284 1276 1486 1435 1483 1548 1918 1580 1771 1367 1365 1256 1177 931
0 0 10 11 9 0 21 22 2 0 8 16 56 85 53 2 0 22 93 18 13 108 287 400 495 630 1049 1360 640 485 1494 1482 1535 1759 1667 1782 1568 1510 1478 1629 1676 1427 971 1406
0 0 0 21 164 97 33 2 0 0 2 33 31 96 133 95 162 82 18 105 229 613 577 503 775 881 1215 1154 1454 1274 1291 1272 1736 1693 1667 2064 2017 2045 1539 1583 1429 1688 1465 1553
0 0 8 14 71 41 177 214 56 7 16 30 80 126 0 5 42 18 116 335 441 535 567 556 969 1141 1548 1467 2124 1452 1692 1689 2016 1797 1772 1594 1936 2012 1769 1811 1463 1552 1288 1242
0 0 0 0 44 20 30 7 7 4 10 1 2 0 15 2 26 40 24 20 150 401 331 538 1061 1403 1545 1708 1722 2305 1827 1777 1683 1719 1812 1849 1666 1933 1874 1410 1523 1400 1410 1322
0 0 0 0 6 48 6 0 0 0 0 0 0 0 0 0 2 0 0 0 0 0 227 545 770 1287 1791 1687 1888 1730 1764 1565 1199 1501 1326 1511 1986 1627 1643 1376 1413 1207 1269 1347
0 0 3 0 0 41 15 6 0 0 3 1 2 5 0 1 1 0 0 0 0 1 291 774 1346 1583 1484 1699 1663 1648 1325 1321 1304 1129 1235 1022 1337 1199 1072 1607 1697 1736 1484 1052
16 12 8 12 65 36 84 58 8 0 0 0 0 0 0 0 0 0 2 10 151 278 1343 1390 1590 1572 1306 1409 1288 1396 1391 1352 1332 1228 1176 1040 601 755 830 971 971 1183 1656 1436
9 3 25 0 18 93 131 51 4 0 0 0 0 0 0 9 0 0 6 240 1084 1708 1588 1167 1152 924 1128 1392 1458 1443 1292 1209 1091 1118 841 940 924 551 597 515 589 626 980 754
0 0 27 128 56 74 151 0 0 0 0 30 1 0 0 0 0 719 778 880 1112 1124 1060 767 609 938 781 755 1114 964 802 621 753 711 535 400 369 249 191 261 104 197 575 243
53 29 42 126 80 71 126 41 0 0 218 375 225 63 0 3 1155 1694 1467 1343 1340 1108 658 457 504 665 379 262 364 253 89 30 0 100 104 172 175 137 215 213 119 68 1 0
79 84 31 53 65 71 45 9 1 140 45 4 45 52 0 650 1643 1401 1169 1076 1025 752 504 416 413 448 278 78 10 1 0 2 2 1 0 2 5 3 8 16 0 0 0 0
52 2 36 60 84 226 45 34 15 39 0 0 0 0 0 25 1298 927 755 721 751 737 490 453 447 279 204 181 139 6 3 0 2 2 2 1 0 1 2 0 0 1 2 1
3 22 0 0 108 180 73 33 72 3 0 0 43 285 704 1116 1036 718 624 658 519 374 328 472 581 611 487 378 62 29 8 0 0 0 1 0 0 2 2 1 2 3 2 1
70 0 0 0 70 87 21 66 27 13 0 50 407 665 758 848 723 805 653 656 473 363 309 166 220 231 140 304 86 35 26 9 7 5 1 1 1 0 0 0 0 0 0 0
5 0 0 9 34 110 18 6 40 0 0 190 569 649 676 717 637 309 107 47 71 38 63 100 79 67 101 172 250 191 86 48 2 7 4 1 1 2 0 0 0 0 0 0
CIN
0 0 -4 -78 -1 -153 -16 -96 -61 -24 -13 -12 -32 -37 0 -55 -5 -8 -10 -12 -23 -6 -40 0 -3 -23 -28 -22 -36 -21 0 -89 -55 -65 -27 -15 -14 -14 -13 -11 -16 -21 -5 -21
0 0 -43 -74 0 -104 -65 -45 -21 -6 -3 -56 0 -35 -26 -64 -47 -5 -2 -6 -34 -42 -9 0 0 -34 0 0 -56 -29 -47 -50 -74 -73 -35 -8 -9 -11 -31 -11 -13 -14 -1 0
0 -3 -5 -54 -96 -51 -39 -26 -3 -2 -2 -16 -212 -12 0 -80 -10 -10 -24 -6 -40 -27 -37 0 0 0 0 0 -75 -62 -41 -72 -78 -32 -16 -10 -5 -44 -32 -23 -9 -10 -6 -1
0 0 0 0 -1 -1 -1 -17 0 0 0 -18 0 -38 0 -102 -105 -6 -14 -9 -46 -46 -35 -83 -1 0 0 0 0 0 -48 -41 -51 -16 -7 -5 -5 -75 -16 -12 -7 -8 -9 -1
0 0 0 0 0 0 -3 0 0 0 -14 -79 -107 0 0 0 -80 -48 -3 -12 -15 -5 -45 -61 -24 -10 0 0 0 -79 -59 -32 -34 -25 -10 -5 -9 -6 -15 -11 -19 -6 -13 -1
0 0 0 0 0 0 -2 0 0 0 -1 -12 -39 -117 -105 -98 -114 0 -2 -2 -9 -7 -28 -37 -82 -48 -19 0 -31 -38 -76 -69 -45 -23 -16 -15 -8 -16 -10 -16 -12 -9 -13 -18
0 0 0 0 0 0 0 0 0 -18 -11 -10 -13 -15 -123 0 -68 -38 -2 -4 -3 -2 -41 -23 -19 -46 -97 -7 -37 -83 -93 -68 -58 -24 -19 -17 -14 -16 -20 -21 -16 -8 -17 -27
0 0 0 0 0 0 0 0 0 -51 -6 -63 -15 -28 -30 -11 0 -1 -2 -16 -5 -10 -11 -22 -8 -47 -53 -35 -50 -76 -80 -70 -59 -66 -36 -15 -11 -4 -18 -18 -8 -30 -48 -65
-8 0 0 0 0 0 0 0 0 0 0 -16 -8 -9 -14 -15 0 -44 -3 -12 -3 -3 -7 -8 -11 -12 -31 -37 -136 -152 -45 -62 -82 -65 -35 -8 -7 -7 -4 -19 -9 -46 -64 -89
0 -4 0 0 0 0 0 0 0 0 0 -16 -12 -23 -4 -16 -5 -16 -9 -2 -9 -13 -5 -4 -5 -9 -12 -70 -77 -14 -49 -72 -84 -61 -28 -8 -5 -11 -12 -15 -14 -18 -40 -124
0 0 -70 0 0 0 0 0 0 0 -5 -4 -21 -6 -15 -16 -17 -15 -24 -25 -17 -34 -5 -2 -3 -9 -7 -18 -28 -5 -49 -48 -54 -48 -31 -9 -2 -11 -8 -13 -3 -4 -5 -15
0 0 -35 -55 -60 0 -71 -62 -3 0 -8 -23 -22 -42 -36 -16 0 -10 -9 -8 -22 -25 -7 -10 -11 -6 -7 -4 -38 -115 -18 -37 -38 -20 -14 -7 -13 -12 -6 -3 -2 -4 -11 -6
0 0 0 -22 -7 -18 -56 -15 0 0 -11 -7 -20 -14 -4 -14 -16 -30 -13 -19 -20 -22 -22 -14 -2 -22 -6 -16 -8 -12 -12 -19 -18 -13 -4 -1 -4 -3 -4 -4 -3 -4 -6 -5
0 0 -10 -23 -35 -97 -4 -11 -22 -3 -6 -5 -8 -13 0 -20 -17 -13 -44 -9 -10 -4 -6 -25 -5 -2 -4 -5 -2 -14 -10 -11 -5 -6 -5 -5 -8 -9 -4 -5 -6 -3 -9 -12
0 0 0 0 -10 -10 -7 -6 -4 -1 -4 -2 -3 0 -3 -1 -14 -10 -20 -24 -12 -13 -27 -17 -1 0 -1 0 -2 -10 -24 -24 -23 -13 -8 -6 -15 -12 -7 -9 -4 -4 -4 -10
0 0 0 0 -14 -5 -8 0 0 0 0 0 0 0 0 0 -5 0 0 0 0 0 -3 -2 -7 -1 -4 -12 -12 -10 -15 -21 -26 -20 -19 -13 -8 -9 -10 -17 -12 -20 -16 -12
-1 0 -21 0 -1 -8 -8 -5 -1 -1 -1 -1 -2 -4 0 -1 -4 0 0 0 0 -19 -2 -3 -6 -15 -16 -2 -1 -11 -18 -16 -10 -18 -18 -25 -8 -14 -15 -14 -7 -11 -15 -19
-28 -3 -9 -16 -18 -15 -12 -7 -25 -4 0 0 0 0 0 0 0 0 -5 -20 -19 -40 -6 -26 -34 -31 -5 -2 -9 -5 -3 -5 -8 -14 -13 -23 -18 -21 -8 -9 -15 -6 -12 -20
-21 -7 -18 0 -10 -18 -5 -16 -32 0 0 0 0 0 0 -4 0 0 -6 -8 -12 -29 -35 -39 -35 -11 -3 -3 0 0 -2 -1 -1 -1 -10 -6 -5 -16 -13 -21 -15 -28 -10 -11
-1 -1 -5 -15 -9 -10 -6 0 0 0 -4 -15 -5 0 0 0 0 -18 -14 -13 -9 -1 -22 -45 -22 -10 -44 -24 -5 -2 -2 -11 0 0 -11 -24 -17 -16 -15 -22 -38 -36 -8 -75
-5 -17 -9 -17 -23 -3 -23 -12 -24 0 -15 -45 -45 -43 0 -3 -11 -35 -51 -66 -31 -10 -19 -18 -13 -15 -80 -91 -50 -60 -103 -82 0 -32 -63 -21 -19 -9 -17 -2 -19 -66 -31 0
-2 -9 -13 -8 -3 -4 -27 -50 -15 -25 -52 -17 -48 -55 0 -5 -25 -53 -54 -53 -50 -12 -10 -1 -7 -15 -29 -80 -169 -28 0 0 0 0 0 -25 -21 -12 -51 -45 0 0 0 0
-11 -22 -108 -58 -4 -39 -38 -44 -59 -92 -1 0 0 -3 0 -1 -15 -38 -30 -15 -9 -4 -5 -7 -3 -15 -27 -26 -13 -34 -37 0 0 0 0 0 0 0 0 0 0 0 0 0
-19 -49 0 0 -11 -28 -33 -55 -96 -31 0 0 -38 -38 -3 -5 -28 -20 -9 -1 -5 -17 -11 -2 -2 0 -4 -8 -52 -69 -85 0 0 0 0 0 0 0 0 0 0 0 0 0
-21 0 0 0 -88 -21 -38 -58 -105 -117 0 -69 -16 -3 -10 -18 -14 -1 -9 -1 0 -8 -12 -33 -36 -30 -64 -24 -45 -73 -82 -118 -115 -117 -37 0 0 0 0 0 0 0 0 0
-32 0 0 -52 -116 -20 -14 -98 -114 0 0 -39 -4 -6 -1 -25 -15 -41 -169 -116 -44 -14 -53 -42 -73 -55 -42 -30 -13 -6 -33 -58 -29 -87 -55 -34 0 0 0 0 0 0 0 0
Wind_Speed
5 27 26 6 11 13 11 24 24 6 11 10 10 11 13 13 20 22 14 16 14 13 14 17 20 19 18 18 18 20 24 18 5 19 25 25 25 22 21 6 8 8 8 7
19 23 9 9 14 24 12 15 18 13 9 8 14 10 7 13 18 22 17 15 11 11 17 16 17 19 19 21 23 22 23 24 26 28 28 22 21 19 14 10 7 8 9 14
27 21 12 4 11 24 25 14 20 14 10 15 22 15 25 25 22 22 21 13 10 12 14 17 17 19 19 21 21 19 18 23 26 28 27 24 19 17 15 21 7 6 6 13
23 28 21 25 25 22 24 22 21 19 17 19 10 22 16 13 25 21 18 14 13 22 16 6 17 19 19 20 21 22 19 16 25 28 27 27 17 23 22 23 10 7 8 10
21 26 28 23 26 23 23 20 24 23 23 17 21 20 17 6 10 28 21 17 14 15 16 14 26 20 19 20 20 19 15 11 17 27 27 23 22 6 24 10 5 5 8 9
25 24 24 28 14 22 23 24 26 26 24 26 11 8 16 8 9 37 25 14 14 14 14 13 16 26 16 17 19 18 17 16 20 6 27 26 23 23 17 16 17 9 6 7
15 23 12 26 25 9 25 26 26 21 21 26 21 21 16 9 9 18 17 12 10 8 10 12 15 11 14 16 16 14 16 14 12 15 3 25 25 21 20 16 14 20 19 16
14 11 14 10 27 24 21 29 26 25 20 21 21 15 13 12 11 14 16 15 12 7 5 9 10 16 12 4 4 26 12 14 10 10 11 8 16 14 15 20 21 19 21 18
14 20 12 11 10 24 23 23 26 27 30 28 9 9 7 10 11 13 11 13 12 13 6 4 6 5 11 8 12 25 15 12 7 8 7 3 4 12 16 8 10 13 9 2
23 10 8 7 16 25 27 26 22 19 18 18 18 19 7 9 10 10 10 11 11 12 12 6 6 8 4 10 16 17 17 12 6 5 5 4 4 7 29 26 4 5 5 5
25 22 13 7 6 24 8 21 25 25 26 24 19 12 10 10 9 7 8 10 10 12 10 11 12 4 2 3 7 13 13 9 7 5 5 5 4 7 13 24 18 9 6 7
16 23 17 3 14 9 21 20 20 24 25 26 27 17 17 14 15 13 11 8 13 12 13 13 15 11 12 8 6 8 9 6 6 6 7 8 9 6 6 12 21 15 10 8
18 19 24 15 13 14 20 25 29 29 30 19 18 16 15 17 18 16 15 10 11 13 13 15 14 16 17 13 9 5 10 8 8 8 9 11 12 15 13 7 12 12 10 10
21 28 24 29 18 15 25 25 24 21 27 26 20 12 24 19 18 11 10 9 12 16 18 20 20 21 17 16 14 6 9 10 13 9 13 14 12 12 13 14 8 13 11 15
19 31 32 31 16 16 20 23 24 21 21 27 30 27 15 20 12 15 17 17 19 20 19 18 19 20 17 17 16 11 9 14 16 17 36 17 15 13 11 14 11 12 12 12
17 22 26 34 32 29 23 22 20 24 27 23 20 29 30 23 16 18 20 21 24 23 19 17 17 15 22 21 20 14 14 16 19 22 27 26 15 18 18 17 15 16 14 15
9 17 18 26 29 30 31 21 21 23 21 22 28 25 23 20 19 23 24 26 21 19 15 15 17 18 23 26 23 22 20 18 18 24 27 29 22 23 18 20 19 19 18 18
24 24 21 26 22 29 26 19 16 18 21 22 25 28 28 29 26 28 23 21 23 22 15 15 16 19 20 24 24 25 24 22 21 24 30 31 27 25 36 19 18 22 20 17
18 8 20 22 26 25 21 25 14 21 16 17 25 27 27 22 27 28 21 15 14 15 15 15 16 18 20 21 22 22 23 25 24 24 27 27 29 26 24 25 21 20 26 22
35 33 23 25 27 27 19 6 18 15 24 18 22 22 21 23 27 19 12 10 14 13 13 15 16 16 21 23 20 19 19 19 19 19 19 18 16 25 27 26 22 23 17 18
29 29 27 23 32 24 25 9 12 19 20 17 21 23 23 24 19 12 12 13 14 12 13 13 15 16 17 18 17 17 18 20 21 20 19 18 17 20 19 18 12 11 12 15
27 27 26 32 32 26 10 15 16 14 15 20 19 22 21 16 11 12 13 13 12 10 8 10 12 12 13 14 15 14 15 17 19 19 21 21 20 21 20 14 6 11 13 13
40 25 25 28 26 10 9 10 14 15 20 20 20 20 17 13 10 13 14 10 7 8 9 9 8 8 10 14 16 15 14 14 15 17 16 13 12 14 15 10 9 9 12 10
43 30 33 35 16 15 13 7 10 15 18 18 16 16 13 11 13 12 11 10 7 5 6 9 8 10 11 13 14 15 12 12 15 15 12 12 12 11 9 9 7 6 5 6
22 26 27 41 25 4 6 6 9 12 15 14 14 12 12 12 12 12 14 15 7 3 5 9 9 9 11 11 12 11 11 11 11 14 12 12 13 14 12 7 7 6 7 7
28 27 27 32 24 7 6 5 7 11 11 11 11 12 12 14 13 15 20 23 14 6 4 6 7 9 9 8 8 9 10 11 12 11 14 14 12 11 10 10 8 10 10 9
Wind_Direction
98 239 256 343 359 83 79 236 246 57 107 76 83 91 105 128 159 176 126 132 119 81 84 92 102 94 103 116 119 127 139 130 254 236 211 208 209 224 229 331 43 24 23 57
220 263 333 344 332 223 123 312 281 327 8 359 149 108 40 114 148 174 151 141 90 102 132 106 104 104 110 124 140 134 136 143 152 169 199 238 244 249 270 283 4 358 87 145
236 270 296 349 331 177 262 334 246 341 357 309 338 343 306 243 210 168 170 131 112 139 118 123 117 118 113 124 129 131 127 138 155 184 203 228 243 256 273 224 29 33 52 133
206 236 288 278 279 286 277 299 304 309 307 304 25 303 328 178 229 166 155 135 132 154 134 114 132 130 129 128 131 136 135 127 157 191 202 211 255 210 205 193 308 52 81 112
189 219 261 278 269 277 278 306 288 288 292 314 305 313 327 8 159 223 164 142 131 138 139 142 189 148 139 136 139 139 136 132 146 179 211 236 246 119 199 325 14 27 355 354
214 257 228 246 258 248 282 279 256 262 286 287 306 347 342 350 358 244 162 123 126 137 130 132 156 180 147 141 140 141 145 147 159 140 236 239 251 250 275 279 271 324 1 30
161 210 308 219 214 240 223 229 257 282 299 281 306 317 337 354 83 67 93 71 84 106 135 145 153 137 155 150 137 140 148 150 147 151 180 248 248 262 268 282 290 275 286 299
168 145 151 121 210 188 219 229 256 273 294 292 225 332 5 60 355 9 12 19 5 56 115 143 143 153 141 187 345 250 151 153 152 153 152 280 275 285 281 270 272 284 276 296
305 307 94 123 125 215 252 258 249 275 259 265 1 359 19 54 29 18 28 32 27 354 67 79 146 146 156 164 163 177 169 161 156 159 160 176 275 281 279 299 301 305 318 47
239 329 56 76 292 246 250 257 271 280 291 297 311 311 357 348 6 21 28 23 31 27 359 68 93 307 209 168 171 173 166 169 167 175 185 194 246 277 250 256 307 320 349 358
227 266 326 66 23 238 348 275 266 267 279 289 309 347 2 357 2 20 16 26 40 12 15 355 339 107 324 242 221 235 169 171 179 203 207 235 241 272 277 264 276 294 311 118
273 271 300 73 213 120 289 289 284 275 279 283 289 316 339 359 350 346 355 350 345 349 344 339 330 339 321 314 266 199 192 202 198 212 228 238 260 262 262 279 273 287 287 303
283 290 283 299 306 315 296 278 270 278 277 295 305 306 337 322 329 333 328 343 334 333 333 330 331 322 315 316 306 269 265 244 231 234 212 244 258 269 276 262 283 285 289 294
286 266 274 277 297 285 287 283 276 299 282 288 307 331 311 320 321 325 330 351 343 331 320 315 313 310 315 311 307 284 273 259 260 224 192 247 245 257 269 276 271 283 284 285
286 269 266 267 300 305 292 294 296 301 303 288 277 296 327 326 344 335 333 326 322 320 321 316 313 311 308 308 300 293 278 272 268 263 238 256 247 233 254 268 268 281 285 285
283 282 278 269 280 288 293 301 304 299 296 305 306 296 297 310 328 324 319 317 313 312 314 313 309 308 299 302 299 296 289 287 275 267 259 264 248 250 257 261 263 271 278 281
284 282 285 283 283 288 285 298 301 300 303 305 296 307 311 317 321 316 313 316 317 317 314 316 315 310 300 293 296 293 289 288 284 274 264 262 262 258 251 254 258 264 270 277
238 284 282 282 295 283 287 309 312 308 308 309 307 306 306 304 311 312 317 318 317 319 319 322 322 314 306 298 296 294 290 289 286 280 270 266 263 260 255 248 254 265 272 272
276 205 285 283 280 291 291 307 312 303 317 323 311 309 307 315 311 306 319 327 343 341 330 329 327 318 312 305 301 300 296 288 287 286 277 276 267 261 259 263 263 270 273 276
264 267 278 282 280 280 307 306 305 333 304 325 328 326 319 318 308 318 351 346 339 347 348 337 326 326 313 306 306 304 301 300 296 301 295 291 287 269 263 262 261 270 272 268
261 265 271 272 268 288 292 323 330 309 314 336 330 323 319 316 324 337 341 336 336 343 343 345 343 334 332 319 316 307 303 297 296 298 296 299 299 286 277 260 242 254 267 279
269 267 256 266 271 276 307 314 307 331 340 329 334 327 323 334 343 335 330 330 330 335 348 351 352 354 354 354 346 332 326 314 306 305 293 291 295 291 285 310 280 268 273 274
259 260 263 276 276 284 326 315 329 335 330 330 330 330 331 334 347 339 334 340 347 342 340 334 353 357 345 346 349 336 338 332 334 338 322 308 320 312 312 302 299 297 271 291
250 261 259 267 271 286 287 311 342 339 340 339 343 341 357 3 354 350 4 0 0 14 5 337 329 320 322 331 346 348 336 343 5 355 355 7 9 357 353 352 338 322 295 308
277 266 257 239 243 284 305 333 342 352 349 355 353 14 17 15 18 23 11 351 349 350 342 327 339 328 321 344 351 359 352 359 6 13 8 17 30 43 40 14 8 356 14 16
264 264 243 243 290 274 287 1 6 355 0 5 17 16 38 54 51 40 22 15 351 306 346 326 355 342 336 356 328 357 9 18 29 23 36 44 39 34 36 34 14 2 2 2